Location: *
(44.1392°N, 4.8079°E)
Time: 15:08:36
(UTC+00:00)

Lacrosse 5 rocket - Pass Details

Date: 18 October 2021
Orbit: 459 x 633 km, 57.0° (Epoch: 04 December)

Event Time Altitude Azimuth Distance (km) Brightness Sun altitude
Exits shadow 03:51:01 56° 162° (SSE) 676 1.7 -23.7°
Maximum altitude 03:51:25 60° 133° (SE) 656 1.7 -23.6°
Drops below altitude 10° 03:55:45 10° 54° (NE) 1,930 4.9 -22.9°
Sets 03:58:06 0° 51° (NE) 2,861 5.9 -22.4°
